Zurück zum Katalog

COSMOS 1331

AktivMilitärLEO
NORAD 13027·PAYLOAD·🇷🇺 Russia

Gestartet Jan 7, 1982 von Plesetsk Cosmodrome

Loading…

Nächste Überflüge (nächste 24 Stunden)

TLE

AktuellSource: Space-Track

Epoche: Sep 14, 2026, 05:59 UTC

1 13027U 82001A   26257.24942086  .00000097  00000-0  40759-4 0  9996
2 13027  74.0499 352.0393 0024774 275.3144  84.5183 14.37750289340375

Verfolge COSMOS 1331 in Echtzeit mit AllMySat

Download on the App Store